# Tabular Observed and Forecast Hydrograph Information
#
# Location: San Diego River - Fashion Valley (FSNC1)
#
# File Generation Time: 05/02/2026 at 09:08 AM PDT
# Data Interval: 1 Hour
#
# Most Recent Date & Time of Maximum Observed: 04/29/2026 at 11:00 AM PDT
# Maximum Observed Stage: 2.57 Feet
# Maximum Observed Flow: 7 cfs
#
# Earliest Date & Time of Maximum Forecast: 05/06/2026 at 12:00 AM PDT
# Maximum Forecast Stage: 3.31 Feet
# Maximum Forecast Flow: 32 cfs
#
# OBSERVED
#
# Date & Time (Local) Stage (Feet) Flow (cfs) Trend Observed Status
# ---------------------------------------------------------------------------------
04/27/2026 09 AM PDT 2.54 6 Normal
04/27/2026 10 AM PDT 2.54 6 0 Normal
04/27/2026 11 AM PDT 2.56 7 + Normal
04/27/2026 12 PM PDT 2.56 7 0 Normal
04/27/2026 01 PM PDT 2.55 6 - Normal
04/27/2026 02 PM PDT 2.56 7 + Normal
04/27/2026 03 PM PDT 2.55 6 - Normal
04/27/2026 04 PM PDT 2.55 6 0 Normal
04/27/2026 05 PM PDT 2.54 6 - Normal
04/27/2026 06 PM PDT 2.53 6 - Normal
04/27/2026 07 PM PDT 2.52 6 - Normal
04/27/2026 08 PM PDT 2.50 5 - Normal
04/27/2026 09 PM PDT 2.50 5 0 Normal
04/27/2026 10 PM PDT 2.51 6 + Normal
04/27/2026 11 PM PDT 2.51 6 0 Normal
04/28/2026 12 AM PDT 2.51 6 0 Normal
04/28/2026 01 AM PDT 2.52 6 + Normal
04/28/2026 02 AM PDT 2.51 6 - Normal
04/28/2026 03 AM PDT 2.50 5 - Normal
04/28/2026 04 AM PDT 2.50 5 0 Normal
04/28/2026 05 AM PDT 2.50 5 0 Normal
04/28/2026 06 AM PDT 2.50 5 0 Normal
04/28/2026 07 AM PDT 2.50 5 0 Normal
04/28/2026 08 AM PDT 2.50 5 0 Normal
04/28/2026 09 AM PDT 2.51 6 + Normal
04/28/2026 10 AM PDT 2.53 6 + Normal
04/28/2026 11 AM PDT 2.53 6 0 Normal
04/28/2026 12 PM PDT 2.54 6 + Normal
04/28/2026 01 PM PDT 2.54 6 0 Normal
04/28/2026 02 PM PDT 2.54 6 0 Normal
04/28/2026 03 PM PDT 2.54 6 0 Normal
04/28/2026 04 PM PDT 2.54 6 0 Normal
04/28/2026 05 PM PDT 2.55 6 + Normal
04/28/2026 06 PM PDT 2.54 6 - Normal
04/28/2026 07 PM PDT 2.52 6 - Normal
04/28/2026 08 PM PDT 2.51 6 - Normal
04/28/2026 09 PM PDT 2.52 6 + Normal
04/28/2026 10 PM PDT 2.53 6 + Normal
04/28/2026 11 PM PDT 2.52 6 - Normal
04/29/2026 12 AM PDT 2.51 6 - Normal
04/29/2026 01 AM PDT 2.50 5 - Normal
04/29/2026 02 AM PDT 2.50 5 0 Normal
04/29/2026 03 AM PDT 2.50 5 0 Normal
04/29/2026 04 AM PDT 2.51 6 + Normal
04/29/2026 05 AM PDT 2.51 6 0 Normal
04/29/2026 06 AM PDT 2.51 6 0 Normal
04/29/2026 07 AM PDT 2.51 6 0 Normal
04/29/2026 08 AM PDT 2.52 6 + Normal
04/29/2026 09 AM PDT 2.52 6 0 Normal
04/29/2026 10 AM PDT 2.56 7 + Normal
04/29/2026 11 AM PDT 2.57 7 + Normal
04/29/2026 12 PM PDT 2.56 7 - Normal
04/29/2026 01 PM PDT 2.56 7 0 Normal
04/29/2026 02 PM PDT 2.55 6 - Normal
04/29/2026 03 PM PDT 2.54 6 - Normal
04/29/2026 04 PM PDT 2.54 6 0 Normal
04/29/2026 05 PM PDT 2.54 6 0 Normal
04/29/2026 06 PM PDT 2.53 6 - Normal
04/29/2026 07 PM PDT 2.52 6 - Normal
04/29/2026 08 PM PDT 2.52 6 0 Normal
04/29/2026 09 PM PDT 2.52 6 0 Normal
04/29/2026 10 PM PDT 2.51 6 - Normal
04/29/2026 11 PM PDT 2.52 6 + Normal
04/30/2026 12 AM PDT 2.52 6 0 Normal
04/30/2026 01 AM PDT 2.52 6 0 Normal
04/30/2026 02 AM PDT 2.51 6 - Normal
04/30/2026 03 AM PDT 2.51 6 0 Normal
04/30/2026 04 AM PDT 2.50 5 - Normal
04/30/2026 05 AM PDT 2.50 5 0 Normal
04/30/2026 06 AM PDT 2.51 6 + Normal
04/30/2026 07 AM PDT 2.51 6 0 Normal
04/30/2026 08 AM PDT 2.50 5 - Normal
04/30/2026 09 AM PDT 2.51 6 + Normal
04/30/2026 10 AM PDT 2.51 6 0 Normal
04/30/2026 11 AM PDT 2.52 6 + Normal
04/30/2026 12 PM PDT 2.51 6 - Normal
04/30/2026 01 PM PDT 2.49 5 - Normal
04/30/2026 02 PM PDT 2.50 5 + Normal
04/30/2026 03 PM PDT 2.49 5 - Normal
04/30/2026 04 PM PDT 2.49 5 0 Normal
04/30/2026 05 PM PDT 2.49 5 0 Normal
04/30/2026 06 PM PDT 2.49 5 0 Normal
04/30/2026 07 PM PDT 2.49 5 0 Normal
04/30/2026 08 PM PDT 2.48 5 - Normal
04/30/2026 09 PM PDT 2.48 5 0 Normal
04/30/2026 10 PM PDT 2.48 5 0 Normal
04/30/2026 11 PM PDT 2.48 5 0 Normal
05/01/2026 12 AM PDT 2.48 5 0 Normal
05/01/2026 01 AM PDT 2.47 5 - Normal
05/01/2026 02 AM PDT 2.47 5 0 Normal
05/01/2026 03 AM PDT 2.49 5 + Normal
05/01/2026 04 AM PDT 2.50 5 + Normal
05/01/2026 05 AM PDT 2.49 5 - Normal
05/01/2026 06 AM PDT 2.49 5 0 Normal
05/01/2026 07 AM PDT 2.49 5 0 Normal
05/01/2026 08 AM PDT 2.48 5 - Normal
05/01/2026 09 AM PDT 2.48 5 0 Normal
05/01/2026 10 AM PDT 2.48 5 0 Normal
05/01/2026 11 AM PDT 2.49 5 + Normal
05/01/2026 12 PM PDT 2.49 5 0 Normal
05/01/2026 01 PM PDT 2.49 5 0 Normal
05/01/2026 02 PM PDT 2.49 5 0 Normal
05/01/2026 03 PM PDT 2.49 5 0 Normal
05/01/2026 04 PM PDT 2.50 5 + Normal
05/01/2026 05 PM PDT 2.49 5 - Normal
05/01/2026 06 PM PDT 2.49 5 0 Normal
05/01/2026 07 PM PDT 2.50 5 + Normal
05/01/2026 08 PM PDT 2.50 5 0 Normal
05/01/2026 09 PM PDT 2.49 5 - Normal
05/01/2026 10 PM PDT 2.52 6 + Normal
05/01/2026 11 PM PDT 2.52 6 0 Normal
05/02/2026 12 AM PDT 2.53 6 + Normal
05/02/2026 01 AM PDT 2.53 6 0 Normal
05/02/2026 02 AM PDT 2.53 6 0 Normal
05/02/2026 03 AM PDT 2.53 6 0 Normal
05/02/2026 04 AM PDT 2.54 6 + Normal
05/02/2026 05 AM PDT 2.53 6 - Normal
05/02/2026 06 AM PDT 2.54 6 + Normal
05/02/2026 07 AM PDT 2.53 6 - Normal
05/02/2026 08 AM PDT 2.53 6 0 Normal
#
# FORECAST
#
# Date & Time (Local) Stage (Feet) Flow (cfs) Trend Forecast Status
# ---------------------------------------------------------------------------------
05/02/2026 09 AM PDT 2.52 6 Normal
05/02/2026 10 AM PDT 2.52 6 0 Normal
05/02/2026 11 AM PDT 2.51 6 - Normal
05/02/2026 12 PM PDT 2.51 6 0 Normal
05/02/2026 01 PM PDT 2.50 5 - Normal
05/02/2026 02 PM PDT 2.49 5 - Normal
05/02/2026 03 PM PDT 2.49 5 0 Normal
05/02/2026 04 PM PDT 2.48 5 - Normal
05/02/2026 05 PM PDT 2.47 5 - Normal
05/02/2026 06 PM PDT 2.47 5 0 Normal
05/02/2026 07 PM PDT 2.47 5 0 Normal
05/02/2026 08 PM PDT 2.47 5 0 Normal
05/02/2026 09 PM PDT 2.47 5 0 Normal
05/02/2026 10 PM PDT 2.47 5 0 Normal
05/02/2026 11 PM PDT 2.47 5 0 Normal
05/03/2026 12 AM PDT 2.47 5 0 Normal
05/03/2026 01 AM PDT 2.47 5 0 Normal
05/03/2026 02 AM PDT 2.47 5 0 Normal
05/03/2026 03 AM PDT 2.47 5 0 Normal
05/03/2026 04 AM PDT 2.47 5 0 Normal
05/03/2026 05 AM PDT 2.47 5 0 Normal
05/03/2026 06 AM PDT 2.47 5 0 Normal
05/03/2026 07 AM PDT 2.46 5 - Normal
05/03/2026 08 AM PDT 2.46 5 0 Normal
05/03/2026 09 AM PDT 2.46 5 0 Normal
05/03/2026 10 AM PDT 2.46 5 0 Normal
05/03/2026 11 AM PDT 2.46 5 0 Normal
05/03/2026 12 PM PDT 2.46 5 0 Normal
05/03/2026 01 PM PDT 2.46 5 0 Normal
05/03/2026 02 PM PDT 2.46 5 0 Normal
05/03/2026 03 PM PDT 2.46 5 0 Normal
05/03/2026 04 PM PDT 2.46 5 0 Normal
05/03/2026 05 PM PDT 2.46 5 0 Normal
05/03/2026 06 PM PDT 2.46 5 0 Normal
05/03/2026 07 PM PDT 2.46 5 0 Normal
05/03/2026 08 PM PDT 2.46 5 0 Normal
05/03/2026 09 PM PDT 2.46 5 0 Normal
05/03/2026 10 PM PDT 2.46 5 0 Normal
05/03/2026 11 PM PDT 2.46 5 0 Normal
05/04/2026 12 AM PDT 2.46 5 0 Normal
05/04/2026 01 AM PDT 2.46 5 0 Normal
05/04/2026 02 AM PDT 2.46 5 0 Normal
05/04/2026 03 AM PDT 2.46 5 0 Normal
05/04/2026 04 AM PDT 2.46 5 0 Normal
05/04/2026 05 AM PDT 2.46 5 0 Normal
05/04/2026 06 AM PDT 2.46 5 0 Normal
05/04/2026 07 AM PDT 2.46 5 0 Normal
05/04/2026 08 AM PDT 2.46 5 0 Normal
05/04/2026 09 AM PDT 2.46 5 0 Normal
05/04/2026 10 AM PDT 2.46 5 0 Normal
05/04/2026 11 AM PDT 2.46 5 0 Normal
05/04/2026 12 PM PDT 2.47 5 + Normal
05/04/2026 01 PM PDT 2.49 5 + Normal
05/04/2026 02 PM PDT 2.51 6 + Normal
05/04/2026 03 PM PDT 2.54 6 + Normal
05/04/2026 04 PM PDT 2.56 7 + Normal
05/04/2026 05 PM PDT 2.59 7 + Normal
05/04/2026 06 PM PDT 2.60 7 + Normal
05/04/2026 07 PM PDT 2.61 8 + Normal
05/04/2026 08 PM PDT 2.61 8 0 Normal
05/04/2026 09 PM PDT 2.61 8 0 Normal
05/04/2026 10 PM PDT 2.60 7 - Normal
05/04/2026 11 PM PDT 2.60 7 0 Normal
05/05/2026 12 AM PDT 2.60 7 0 Normal
05/05/2026 01 AM PDT 2.60 7 0 Normal
05/05/2026 02 AM PDT 2.60 7 0 Normal
05/05/2026 03 AM PDT 2.60 7 0 Normal
05/05/2026 04 AM PDT 2.60 7 0 Normal
05/05/2026 05 AM PDT 2.60 7 0 Normal
05/05/2026 06 AM PDT 2.60 7 0 Normal
05/05/2026 07 AM PDT 2.59 7 - Normal
05/05/2026 08 AM PDT 2.59 7 0 Normal
05/05/2026 09 AM PDT 2.59 7 0 Normal
05/05/2026 10 AM PDT 2.58 7 - Normal
05/05/2026 11 AM PDT 2.59 7 + Normal
05/05/2026 12 PM PDT 2.62 8 + Normal
05/05/2026 01 PM PDT 2.73 11 + Normal
05/05/2026 02 PM PDT 2.87 14 + Normal
05/05/2026 03 PM PDT 2.98 18 + Normal
05/05/2026 04 PM PDT 3.06 21 + Normal
05/05/2026 05 PM PDT 3.13 24 + Normal
05/05/2026 06 PM PDT 3.18 26 + Normal
05/05/2026 07 PM PDT 3.21 27 + Normal
05/05/2026 08 PM PDT 3.24 29 + Normal
05/05/2026 09 PM PDT 3.26 30 + Normal
05/05/2026 10 PM PDT 3.28 31 + Normal
05/05/2026 11 PM PDT 3.29 31 + Normal
05/06/2026 12 AM PDT 3.31 32 + Normal
05/06/2026 01 AM PDT 3.31 32 0 Normal
05/06/2026 02 AM PDT 3.31 32 0 Normal
05/06/2026 03 AM PDT 3.31 32 0 Normal
05/06/2026 04 AM PDT 3.31 32 0 Normal
05/06/2026 05 AM PDT 3.30 32 - Normal
05/06/2026 06 AM PDT 3.29 31 - Normal
05/06/2026 07 AM PDT 3.28 31 - Normal
05/06/2026 08 AM PDT 3.27 30 - Normal
05/06/2026 09 AM PDT 3.26 30 - Normal
05/06/2026 10 AM PDT 3.25 29 - Normal
05/06/2026 11 AM PDT 3.24 29 - Normal
05/06/2026 12 PM PDT 3.22 28 - Normal
05/06/2026 01 PM PDT 3.21 27 - Normal
05/06/2026 02 PM PDT 3.19 27 - Normal
05/06/2026 03 PM PDT 3.17 26 - Normal
05/06/2026 04 PM PDT 3.15 25 - Normal
05/06/2026 05 PM PDT 3.13 24 - Normal
05/06/2026 06 PM PDT 3.11 23 - Normal
05/06/2026 07 PM PDT 3.09 22 - Normal
05/06/2026 08 PM PDT 3.07 21 - Normal
05/06/2026 09 PM PDT 3.05 21 - Normal
05/06/2026 10 PM PDT 3.03 20 - Normal
05/06/2026 11 PM PDT 3.01 19 - Normal
05/07/2026 12 AM PDT 2.98 18 - Normal
05/07/2026 01 AM PDT 2.96 17 - Normal
05/07/2026 02 AM PDT 2.94 17 - Normal
05/07/2026 03 AM PDT 2.91 16 - Normal
05/07/2026 04 AM PDT 2.89 15 - Normal
05/07/2026 05 AM PDT 2.87 14 - Normal
#
# NOTE 1: Stages are rounded to the nearest hundredth (.01) of a foot.
# NOTE 2: Flows are rounded to the nearest (1) cfs.
# NOTE 3: Trends are determined using hourly change in unrounded stage and flow.
# NOTE 4: Maximum Values are determined using unrounded stage and flow.
|